Year,Month,Day,Hour,Minute,Value (Times are PST for temperature in C)
2016,07,14,00,00,17.10
2016,07,14,00,01,17.00
2016,07,14,00,02,17.00
2016,07,14,00,03,17.00
2016,07,14,00,04,16.90
2016,07,14,00,05,16.90
2016,07,14,00,06,16.90
2016,07,14,00,07,16.80
2016,07,14,00,08,16.80
2016,07,14,00,09,16.80
2016,07,14,00,10,16.80
2016,07,14,00,11,16.70
2016,07,14,00,12,16.70
2016,07,14,00,13,16.70
2016,07,14,00,14,16.70
2016,07,14,00,15,16.70
2016,07,14,00,16,16.70
2016,07,14,00,17,16.70
2016,07,14,00,18,16.60
2016,07,14,00,19,16.60
2016,07,14,00,20,16.60
2016,07,14,00,21,16.60
2016,07,14,00,22,16.60
2016,07,14,00,23,16.60
2016,07,14,00,24,16.60
2016,07,14,00,25,16.50
2016,07,14,00,26,16.50
2016,07,14,00,27,16.50
2016,07,14,00,28,16.50
2016,07,14,00,29,16.50
2016,07,14,00,30,16.40
2016,07,14,00,31,16.40
2016,07,14,00,32,16.40
2016,07,14,00,33,16.40
2016,07,14,00,34,16.40
2016,07,14,00,35,16.40
2016,07,14,00,36,16.30
2016,07,14,00,37,16.30
2016,07,14,00,38,16.30
2016,07,14,00,39,16.20
2016,07,14,00,40,16.20
2016,07,14,00,41,16.20
2016,07,14,00,42,16.10
2016,07,14,00,43,16.10
2016,07,14,00,44,16.00
2016,07,14,00,45,16.00
2016,07,14,00,46,15.90
2016,07,14,00,47,15.90
2016,07,14,00,48,15.90
2016,07,14,00,49,15.80
2016,07,14,00,50,15.80
2016,07,14,00,51,15.80
2016,07,14,00,52,15.80
2016,07,14,00,53,15.80
2016,07,14,00,54,15.70
2016,07,14,00,55,15.70
2016,07,14,00,56,15.70
2016,07,14,00,57,15.70
2016,07,14,00,58,15.70
2016,07,14,00,59,15.70
2016,07,14,01,00,15.70
2016,07,14,01,01,15.70
2016,07,14,01,02,15.70
2016,07,14,01,03,15.70
2016,07,14,01,04,15.70
2016,07,14,01,05,15.70
2016,07,14,01,06,15.70
2016,07,14,01,07,15.70
2016,07,14,01,08,15.70
2016,07,14,01,09,15.70
2016,07,14,01,10,15.70
2016,07,14,01,11,15.70
2016,07,14,01,12,15.70
2016,07,14,01,13,15.70
2016,07,14,01,14,15.70
2016,07,14,01,15,15.80
2016,07,14,01,16,15.80
2016,07,14,01,17,15.80
2016,07,14,01,18,15.80
2016,07,14,01,19,15.80
2016,07,14,01,20,15.90
2016,07,14,01,21,15.90
2016,07,14,01,22,15.90
2016,07,14,01,23,16.00
2016,07,14,01,24,16.00
2016,07,14,01,25,16.00
2016,07,14,01,26,16.10
2016,07,14,01,27,16.10
2016,07,14,01,28,16.10
2016,07,14,01,29,16.10
2016,07,14,01,30,16.10
2016,07,14,01,31,16.10
2016,07,14,01,32,16.10
2016,07,14,01,33,16.10
2016,07,14,01,34,16.10
2016,07,14,01,35,16.10
2016,07,14,01,36,16.10
2016,07,14,01,37,16.10
2016,07,14,01,38,16.10
2016,07,14,01,39,16.10
2016,07,14,01,40,16.10
2016,07,14,01,41,16.10
2016,07,14,01,42,16.10
2016,07,14,01,43,16.10
2016,07,14,01,44,16.10
2016,07,14,01,45,16.00
2016,07,14,01,46,16.00
2016,07,14,01,47,16.00
2016,07,14,01,48,15.90
2016,07,14,01,49,15.90
2016,07,14,01,50,15.90
2016,07,14,01,51,15.90
2016,07,14,01,52,15.90
2016,07,14,01,53,15.90
2016,07,14,01,54,15.80
2016,07,14,01,55,15.80
2016,07,14,01,56,15.80
2016,07,14,01,57,15.80
2016,07,14,01,58,15.80
2016,07,14,01,59,15.70
2016,07,14,02,00,15.70
2016,07,14,02,01,15.70
2016,07,14,02,02,15.70
2016,07,14,02,03,15.70
2016,07,14,02,04,15.60
2016,07,14,02,05,15.60
2016,07,14,02,06,15.60
2016,07,14,02,07,15.50
2016,07,14,02,08,15.50
2016,07,14,02,09,15.40
2016,07,14,02,10,15.40
2016,07,14,02,11,15.40
2016,07,14,02,12,15.40
2016,07,14,02,13,15.30
2016,07,14,02,14,15.30
2016,07,14,02,15,15.30
2016,07,14,02,16,15.30
2016,07,14,02,17,15.30
2016,07,14,02,18,15.30
2016,07,14,02,19,15.30
2016,07,14,02,20,15.30
2016,07,14,02,21,15.30
2016,07,14,02,22,15.30
2016,07,14,02,23,15.20
2016,07,14,02,24,15.20
2016,07,14,02,25,15.20
2016,07,14,02,26,15.20
2016,07,14,02,27,15.20
2016,07,14,02,28,15.20
2016,07,14,02,29,15.20
2016,07,14,02,30,15.20
2016,07,14,02,31,15.20
2016,07,14,02,32,15.20
2016,07,14,02,33,15.20
2016,07,14,02,34,15.20
2016,07,14,02,35,15.20
2016,07,14,02,36,15.20
2016,07,14,02,37,15.10
2016,07,14,02,38,15.10
2016,07,14,02,39,15.10
2016,07,14,02,40,15.10
2016,07,14,02,41,15.10
2016,07,14,02,42,15.00
2016,07,14,02,43,15.00
2016,07,14,02,44,15.00
2016,07,14,02,45,14.90
2016,07,14,02,46,14.90
2016,07,14,02,47,14.90
2016,07,14,02,48,14.90
2016,07,14,02,49,14.80
2016,07,14,02,50,14.80
2016,07,14,02,51,14.80
2016,07,14,02,52,14.80
2016,07,14,02,53,14.80
2016,07,14,02,54,14.80
2016,07,14,02,55,14.80
2016,07,14,02,56,14.80
2016,07,14,02,57,14.80
2016,07,14,02,58,14.80
2016,07,14,02,59,14.90
2016,07,14,03,00,14.90
2016,07,14,03,01,14.90
2016,07,14,03,02,14.90
2016,07,14,03,03,14.90
2016,07,14,03,04,14.90
2016,07,14,03,05,14.90
2016,07,14,03,06,14.90
2016,07,14,03,07,14.90
2016,07,14,03,08,14.90
2016,07,14,03,09,14.90
2016,07,14,03,10,14.90
2016,07,14,03,11,15.00
2016,07,14,03,12,15.00
2016,07,14,03,13,15.00
2016,07,14,03,14,15.00
2016,07,14,03,15,15.10
2016,07,14,03,16,15.10
2016,07,14,03,17,15.10
2016,07,14,03,18,15.10
2016,07,14,03,19,15.10
2016,07,14,03,20,15.20
2016,07,14,03,21,15.20
2016,07,14,03,22,15.20
2016,07,14,03,23,15.20
2016,07,14,03,24,15.20
2016,07,14,03,25,15.20
2016,07,14,03,26,15.20
2016,07,14,03,27,15.20
2016,07,14,03,28,15.20
2016,07,14,03,29,15.20
2016,07,14,03,30,15.20
2016,07,14,03,31,15.20
2016,07,14,03,32,15.20
2016,07,14,03,33,15.20
2016,07,14,03,34,15.20
2016,07,14,03,35,15.10
2016,07,14,03,36,15.10
2016,07,14,03,37,15.10
2016,07,14,03,38,15.10
2016,07,14,03,39,15.00
2016,07,14,03,40,15.00
2016,07,14,03,41,15.00
2016,07,14,03,42,15.00
2016,07,14,03,43,15.00
2016,07,14,03,44,14.90
2016,07,14,03,45,14.90
2016,07,14,03,46,14.90
2016,07,14,03,47,14.90
2016,07,14,03,48,14.80
2016,07,14,03,49,14.80
2016,07,14,03,50,14.80
2016,07,14,03,51,14.80
2016,07,14,03,52,14.80
2016,07,14,03,53,14.70
2016,07,14,03,54,14.70
2016,07,14,03,55,14.70
2016,07,14,03,56,14.70
2016,07,14,03,57,14.60
2016,07,14,03,58,14.60
2016,07,14,03,59,14.60
2016,07,14,04,00,14.60
2016,07,14,04,01,14.50
2016,07,14,04,02,14.50
2016,07,14,04,03,14.50
2016,07,14,04,04,14.50
2016,07,14,04,05,14.40
2016,07,14,04,06,14.40
2016,07,14,04,07,14.40
2016,07,14,04,08,14.40
2016,07,14,04,09,14.40
2016,07,14,04,10,14.40
2016,07,14,04,11,14.40
2016,07,14,04,12,14.40
2016,07,14,04,13,14.40
2016,07,14,04,14,14.40
2016,07,14,04,15,14.40
2016,07,14,04,16,14.40
2016,07,14,04,17,14.40
2016,07,14,04,18,14.40
2016,07,14,04,19,14.40
2016,07,14,04,20,14.40
2016,07,14,04,21,14.40
2016,07,14,04,22,14.40
2016,07,14,04,23,14.40
2016,07,14,04,24,14.40
2016,07,14,04,25,14.40
2016,07,14,04,26,14.40
2016,07,14,04,27,14.40
2016,07,14,04,28,14.40
2016,07,14,04,29,14.50
2016,07,14,04,30,14.50
2016,07,14,04,31,14.50
2016,07,14,04,32,14.50
2016,07,14,04,33,14.50
2016,07,14,04,34,14.60
2016,07,14,04,35,14.60
2016,07,14,04,36,14.60
2016,07,14,04,37,14.60
2016,07,14,04,38,14.60
2016,07,14,04,39,14.60
2016,07,14,04,40,14.60
2016,07,14,04,41,14.60
2016,07,14,04,42,14.60
2016,07,14,04,43,14.60
2016,07,14,04,44,14.60
2016,07,14,04,45,14.60
2016,07,14,04,46,14.60
2016,07,14,04,47,14.60
2016,07,14,04,48,14.60
2016,07,14,04,49,14.60
2016,07,14,04,50,14.60
2016,07,14,04,51,14.60
2016,07,14,04,52,14.60
2016,07,14,04,53,14.60
2016,07,14,04,54,14.60
2016,07,14,04,55,14.60
2016,07,14,04,56,14.60
2016,07,14,04,57,14.60
2016,07,14,04,58,14.60
2016,07,14,04,59,14.60
2016,07,14,05,00,14.70
2016,07,14,05,01,14.70
2016,07,14,05,02,14.70
2016,07,14,05,03,14.70
2016,07,14,05,04,14.70
2016,07,14,05,05,14.70
2016,07,14,05,06,14.70
2016,07,14,05,07,14.80
2016,07,14,05,08,14.80
2016,07,14,05,09,14.80
2016,07,14,05,10,14.80
2016,07,14,05,11,14.80
2016,07,14,05,12,14.80
2016,07,14,05,13,14.80
2016,07,14,05,14,14.80
2016,07,14,05,15,14.90
2016,07,14,05,16,14.90
2016,07,14,05,17,14.90
2016,07,14,05,18,14.90
2016,07,14,05,19,14.90
2016,07,14,05,20,14.90
2016,07,14,05,21,14.90
2016,07,14,05,22,14.90
2016,07,14,05,23,15.00
2016,07,14,05,24,15.00
2016,07,14,05,25,15.00
2016,07,14,05,26,15.00
2016,07,14,05,27,15.00
2016,07,14,05,28,15.10
2016,07,14,05,29,15.10
2016,07,14,05,30,15.10
2016,07,14,05,31,15.10
2016,07,14,05,32,15.10
2016,07,14,05,33,15.10
2016,07,14,05,34,15.10
2016,07,14,05,35,15.10
2016,07,14,05,36,15.10
2016,07,14,05,37,15.10
2016,07,14,05,38,15.10
2016,07,14,05,39,15.20
2016,07,14,05,40,15.20
2016,07,14,05,41,15.20
2016,07,14,05,42,15.20
2016,07,14,05,43,15.20
2016,07,14,05,44,15.20
2016,07,14,05,45,15.20
2016,07,14,05,46,15.20
2016,07,14,05,47,15.20
2016,07,14,05,48,15.20
2016,07,14,05,49,15.20
2016,07,14,05,50,15.20
2016,07,14,05,51,15.20
2016,07,14,05,52,15.20
2016,07,14,05,53,15.20
2016,07,14,05,54,15.20
2016,07,14,05,55,15.20
2016,07,14,05,56,15.20
2016,07,14,05,57,15.20
2016,07,14,05,58,15.20
2016,07,14,05,59,15.20
2016,07,14,06,00,15.20
2016,07,14,06,01,15.30
2016,07,14,06,02,15.30
2016,07,14,06,03,15.20
2016,07,14,06,04,15.20
2016,07,14,06,05,15.30
2016,07,14,06,06,15.30
2016,07,14,06,07,15.30
2016,07,14,06,08,15.30
2016,07,14,06,09,15.30
2016,07,14,06,10,15.30
2016,07,14,06,11,15.30
2016,07,14,06,12,15.30
2016,07,14,06,13,15.30
2016,07,14,06,14,15.30
2016,07,14,06,15,15.30
2016,07,14,06,16,15.30
2016,07,14,06,17,15.30
2016,07,14,06,18,15.30
2016,07,14,06,19,15.30
2016,07,14,06,20,15.30
2016,07,14,06,21,15.30
2016,07,14,06,22,15.30
2016,07,14,06,23,15.30
2016,07,14,06,24,15.30
2016,07,14,06,25,15.30
2016,07,14,06,26,15.30
2016,07,14,06,27,15.30
2016,07,14,06,28,15.30
2016,07,14,06,29,15.20
2016,07,14,06,30,15.20
2016,07,14,06,31,15.20
2016,07,14,06,32,15.20
2016,07,14,06,33,15.20
2016,07,14,06,34,15.20
2016,07,14,06,35,15.20
2016,07,14,06,36,15.20
2016,07,14,06,37,15.20
2016,07,14,06,38,15.20
2016,07,14,06,39,15.20
2016,07,14,06,40,15.20
2016,07,14,06,41,15.20
2016,07,14,06,42,15.20
2016,07,14,06,43,15.20
2016,07,14,06,44,15.20
2016,07,14,06,45,15.20
2016,07,14,06,46,15.20
2016,07,14,06,47,15.20
2016,07,14,06,48,15.20
2016,07,14,06,49,15.20
2016,07,14,06,50,15.20
2016,07,14,06,51,15.20
2016,07,14,06,52,15.10
2016,07,14,06,53,15.10
2016,07,14,06,54,15.10
2016,07,14,06,55,15.00
2016,07,14,06,56,15.00
2016,07,14,06,57,15.00
2016,07,14,06,58,15.00
2016,07,14,06,59,15.00
2016,07,14,07,00,14.90
2016,07,14,07,01,14.90
2016,07,14,07,02,14.90
2016,07,14,07,03,14.90
2016,07,14,07,04,14.90
2016,07,14,07,05,14.90
2016,07,14,07,06,14.90
2016,07,14,07,07,14.90
2016,07,14,07,08,14.90
2016,07,14,07,09,14.90
2016,07,14,07,10,14.90
2016,07,14,07,11,14.90
2016,07,14,07,12,14.90
2016,07,14,07,13,14.90
2016,07,14,07,14,14.90
2016,07,14,07,15,14.90
2016,07,14,07,16,14.90
2016,07,14,07,17,14.90
2016,07,14,07,18,14.90
2016,07,14,07,19,14.90
2016,07,14,07,20,14.90
2016,07,14,07,21,14.90
2016,07,14,07,22,14.90
2016,07,14,07,23,14.90
2016,07,14,07,24,14.90
2016,07,14,07,25,14.90
2016,07,14,07,26,14.90
2016,07,14,07,27,14.90
2016,07,14,07,28,14.90
2016,07,14,07,29,14.90
2016,07,14,07,30,14.90
2016,07,14,07,31,14.90
2016,07,14,07,32,14.90
2016,07,14,07,33,15.00
2016,07,14,07,34,15.00
2016,07,14,07,35,15.00
2016,07,14,07,36,15.00
2016,07,14,07,37,15.10
2016,07,14,07,38,15.10
2016,07,14,07,39,15.10
2016,07,14,07,40,15.10
2016,07,14,07,41,15.10
2016,07,14,07,42,15.10
2016,07,14,07,43,15.10
2016,07,14,07,44,15.10
2016,07,14,07,45,15.10
2016,07,14,07,46,15.10
2016,07,14,07,47,15.20
2016,07,14,07,48,15.20
2016,07,14,07,49,15.20
2016,07,14,07,50,15.20
2016,07,14,07,51,15.20
2016,07,14,07,52,15.20
2016,07,14,07,53,15.20
2016,07,14,07,54,15.20
2016,07,14,07,55,15.20
2016,07,14,07,56,15.20
2016,07,14,07,57,15.20
2016,07,14,07,58,15.20
2016,07,14,07,59,15.30
2016,07,14,08,00,15.30
2016,07,14,08,01,15.30
2016,07,14,08,02,15.30
2016,07,14,08,03,15.30
2016,07,14,08,04,15.30
2016,07,14,08,05,15.30
2016,07,14,08,06,15.30
2016,07,14,08,07,15.30
2016,07,14,08,08,15.30
2016,07,14,08,09,15.30
2016,07,14,08,10,15.30
2016,07,14,08,11,15.30
2016,07,14,08,12,15.40
2016,07,14,08,13,15.30
2016,07,14,08,14,15.40
2016,07,14,08,15,15.40
2016,07,14,08,16,15.40
2016,07,14,08,17,15.40
2016,07,14,08,18,15.40
2016,07,14,08,19,15.40
2016,07,14,08,20,15.40
2016,07,14,08,21,15.50
2016,07,14,08,22,15.50
2016,07,14,08,23,15.50
2016,07,14,08,24,15.50
2016,07,14,08,25,15.60
2016,07,14,08,26,15.60
2016,07,14,08,27,15.60
2016,07,14,08,28,15.60
2016,07,14,08,29,15.60
2016,07,14,08,30,15.60
2016,07,14,08,31,15.60
2016,07,14,08,32,15.60
2016,07,14,08,33,15.60
2016,07,14,08,34,15.60
2016,07,14,08,35,15.60
2016,07,14,08,36,15.60
2016,07,14,08,37,15.70
2016,07,14,08,38,15.70
2016,07,14,08,39,15.70
2016,07,14,08,40,15.70
2016,07,14,08,41,15.70
2016,07,14,08,42,15.80
2016,07,14,08,43,15.80
2016,07,14,08,44,15.80
2016,07,14,08,45,15.80
2016,07,14,08,46,15.80
2016,07,14,08,47,15.80
2016,07,14,08,48,15.70
2016,07,14,08,49,15.70
2016,07,14,08,50,15.70
2016,07,14,08,51,15.70
2016,07,14,08,52,15.80
2016,07,14,08,53,15.80
2016,07,14,08,54,15.90
2016,07,14,08,55,15.90
2016,07,14,08,56,16.00
2016,07,14,08,57,16.00
2016,07,14,08,58,16.10
2016,07,14,08,59,16.10
2016,07,14,09,00,16.20
2016,07,14,09,01,16.30
2016,07,14,09,02,16.30
2016,07,14,09,03,16.40
2016,07,14,09,04,16.40
2016,07,14,09,05,16.50
2016,07,14,09,06,16.50
2016,07,14,09,07,16.50
2016,07,14,09,08,16.60
2016,07,14,09,09,16.60
2016,07,14,09,10,16.60
2016,07,14,09,11,16.70
2016,07,14,09,12,16.70
2016,07,14,09,13,16.80
2016,07,14,09,14,16.80
2016,07,14,09,15,16.80
2016,07,14,09,16,16.80
2016,07,14,09,17,16.80
2016,07,14,09,18,16.90
2016,07,14,09,19,16.90
2016,07,14,09,20,17.00
2016,07,14,09,21,17.10
2016,07,14,09,22,17.20
2016,07,14,09,23,17.30
2016,07,14,09,24,17.40
2016,07,14,09,25,17.50
2016,07,14,09,26,17.60
2016,07,14,09,27,17.70
2016,07,14,09,28,17.70
2016,07,14,09,29,17.70
2016,07,14,09,30,17.80
2016,07,14,09,31,17.80
2016,07,14,09,32,17.80
2016,07,14,09,33,17.80
2016,07,14,09,34,17.70
2016,07,14,09,35,17.80
2016,07,14,09,36,17.80
2016,07,14,09,37,17.80
2016,07,14,09,38,17.90
2016,07,14,09,39,17.90
2016,07,14,09,40,17.90
2016,07,14,09,41,17.90
2016,07,14,09,42,17.90
2016,07,14,09,43,18.00
2016,07,14,09,44,18.00
2016,07,14,09,45,18.00
2016,07,14,09,46,18.00
2016,07,14,09,47,18.10
2016,07,14,09,48,18.10
2016,07,14,09,49,18.10
2016,07,14,09,50,18.10
2016,07,14,09,51,18.10
2016,07,14,09,52,18.10
2016,07,14,09,53,18.00
2016,07,14,09,54,17.90
2016,07,14,09,55,17.90
2016,07,14,09,56,17.90
2016,07,14,09,57,17.90
2016,07,14,09,58,17.90
2016,07,14,09,59,17.90
2016,07,14,10,00,17.90
2016,07,14,10,01,18.00
2016,07,14,10,02,18.00
2016,07,14,10,03,18.00
2016,07,14,10,04,18.10
2016,07,14,10,05,18.10
2016,07,14,10,06,18.20
2016,07,14,10,07,18.30
2016,07,14,10,08,18.40
2016,07,14,10,09,18.50
2016,07,14,10,10,18.60
2016,07,14,10,11,18.70
2016,07,14,10,12,18.80
2016,07,14,10,13,18.80
2016,07,14,10,14,18.80
2016,07,14,10,15,18.80
2016,07,14,10,16,18.80
2016,07,14,10,17,18.80
2016,07,14,10,18,18.80
2016,07,14,10,19,18.80
2016,07,14,10,20,18.80
2016,07,14,10,21,18.80
2016,07,14,10,22,18.80
2016,07,14,10,23,18.80
2016,07,14,10,24,18.80
2016,07,14,10,25,18.70
2016,07,14,10,26,18.70
2016,07,14,10,27,18.80
2016,07,14,10,28,18.80
2016,07,14,10,29,18.90
2016,07,14,10,30,19.00
2016,07,14,10,31,19.10
2016,07,14,10,32,19.20
2016,07,14,10,33,19.30
2016,07,14,10,34,19.30
2016,07,14,10,35,19.30
2016,07,14,10,36,19.40
2016,07,14,10,37,19.50
2016,07,14,10,38,19.60
2016,07,14,10,39,19.70
2016,07,14,10,40,19.70
2016,07,14,10,41,19.70
2016,07,14,10,42,19.80
2016,07,14,10,43,19.80
2016,07,14,10,44,19.70
2016,07,14,10,45,19.70
2016,07,14,10,46,19.70
2016,07,14,10,47,19.70
2016,07,14,10,48,19.70
2016,07,14,10,49,19.70
2016,07,14,10,50,19.70
2016,07,14,10,51,19.70
2016,07,14,10,52,19.70
2016,07,14,10,53,19.70
2016,07,14,10,54,19.80
2016,07,14,10,55,19.80
2016,07,14,10,56,19.80
2016,07,14,10,57,19.70
2016,07,14,10,58,19.70
2016,07,14,10,59,19.70
2016,07,14,11,00,19.80
2016,07,14,11,01,19.80
2016,07,14,11,02,19.90
2016,07,14,11,03,20.00
2016,07,14,11,04,20.00
2016,07,14,11,05,20.10
2016,07,14,11,06,20.30
2016,07,14,11,07,20.30
2016,07,14,11,08,20.30
2016,07,14,11,09,20.30
2016,07,14,11,10,20.30
2016,07,14,11,11,20.30
2016,07,14,11,12,20.20
2016,07,14,11,13,20.20
2016,07,14,11,14,20.20
2016,07,14,11,15,20.10
2016,07,14,11,16,20.00
2016,07,14,11,17,20.00
2016,07,14,11,18,20.00
2016,07,14,11,19,20.00
2016,07,14,11,20,19.90
2016,07,14,11,21,20.00
2016,07,14,11,22,20.00
2016,07,14,11,23,20.00
2016,07,14,11,24,20.10
2016,07,14,11,25,20.10
2016,07,14,11,26,20.20
2016,07,14,11,27,20.30
2016,07,14,11,28,20.30
2016,07,14,11,29,20.40
2016,07,14,11,30,20.50
2016,07,14,11,31,20.70
2016,07,14,11,32,20.70
2016,07,14,11,33,20.80
2016,07,14,11,34,20.80
2016,07,14,11,35,20.80
2016,07,14,11,36,20.80
2016,07,14,11,37,20.70
2016,07,14,11,38,20.70
2016,07,14,11,39,20.70
2016,07,14,11,40,20.70
2016,07,14,11,41,20.70
2016,07,14,11,42,20.70
2016,07,14,11,43,20.70
2016,07,14,11,44,20.80
2016,07,14,11,45,20.90
2016,07,14,11,46,21.00
2016,07,14,11,47,21.20
2016,07,14,11,48,21.30
2016,07,14,11,49,21.40
2016,07,14,11,50,21.50
2016,07,14,11,51,21.50
2016,07,14,11,52,21.50
2016,07,14,11,53,21.40
2016,07,14,11,54,21.40
2016,07,14,11,55,21.30
2016,07,14,11,56,21.30
2016,07,14,11,57,21.30
2016,07,14,11,58,21.30
2016,07,14,11,59,21.40
2016,07,14,12,00,21.40
2016,07,14,12,01,21.30
2016,07,14,12,02,21.30
2016,07,14,12,03,21.20
2016,07,14,12,04,21.20
2016,07,14,12,05,21.10
2016,07,14,12,06,21.00
2016,07,14,12,07,20.90
2016,07,14,12,08,20.80
2016,07,14,12,09,20.60
2016,07,14,12,10,20.60
2016,07,14,12,11,20.40
2016,07,14,12,12,20.30
2016,07,14,12,13,20.30
2016,07,14,12,14,20.30
2016,07,14,12,15,20.20
2016,07,14,12,16,20.20
2016,07,14,12,17,20.20
2016,07,14,12,18,20.20
2016,07,14,12,19,20.20
2016,07,14,12,20,20.20
2016,07,14,12,21,20.30
2016,07,14,12,22,20.30
2016,07,14,12,23,20.40
2016,07,14,12,24,20.50
2016,07,14,12,25,20.60
2016,07,14,12,26,20.60
2016,07,14,12,27,20.60
2016,07,14,12,28,20.70
2016,07,14,12,29,20.70
2016,07,14,12,30,20.80
2016,07,14,12,31,20.80
2016,07,14,12,32,20.90
2016,07,14,12,33,20.90
2016,07,14,12,34,20.90
2016,07,14,12,35,20.90
2016,07,14,12,36,21.00
2016,07,14,12,37,21.10
2016,07,14,12,38,21.20
2016,07,14,12,39,21.30
2016,07,14,12,40,21.40
2016,07,14,12,41,21.50
2016,07,14,12,42,21.50
2016,07,14,12,43,21.60
2016,07,14,12,44,21.70
2016,07,14,12,45,21.80
2016,07,14,12,46,21.80
2016,07,14,12,47,21.90
2016,07,14,12,48,21.90
2016,07,14,12,49,21.80
2016,07,14,12,50,21.90
2016,07,14,12,51,22.00
2016,07,14,12,52,22.20
2016,07,14,12,53,22.20
2016,07,14,12,54,22.20
2016,07,14,12,55,22.20
2016,07,14,12,56,22.20
2016,07,14,12,57,22.20
2016,07,14,12,58,22.20
2016,07,14,12,59,22.20
2016,07,14,13,00,22.30
2016,07,14,13,01,22.20
2016,07,14,13,02,22.20
2016,07,14,13,03,22.20
2016,07,14,13,04,22.30
2016,07,14,13,05,22.30
2016,07,14,13,06,22.20
2016,07,14,13,07,22.30
2016,07,14,13,08,22.30
2016,07,14,13,09,22.40
2016,07,14,13,10,22.40
2016,07,14,13,11,22.40
2016,07,14,13,12,22.50
2016,07,14,13,13,22.50
2016,07,14,13,14,22.60
2016,07,14,13,15,22.60
2016,07,14,13,16,22.60
2016,07,14,13,17,22.60
2016,07,14,13,18,22.60
2016,07,14,13,19,22.60
2016,07,14,13,20,22.70
2016,07,14,13,21,22.80
2016,07,14,13,22,22.80
2016,07,14,13,23,22.90
2016,07,14,13,24,22.80
2016,07,14,13,25,22.70
2016,07,14,13,26,22.60
2016,07,14,13,27,22.50
2016,07,14,13,28,22.40
2016,07,14,13,29,22.40
2016,07,14,13,30,22.40
2016,07,14,13,31,22.40
2016,07,14,13,32,22.30
2016,07,14,13,33,22.40
2016,07,14,13,34,22.40
2016,07,14,13,35,22.50
2016,07,14,13,36,22.60
2016,07,14,13,37,22.60
2016,07,14,13,38,22.70
2016,07,14,13,39,22.70
2016,07,14,13,40,22.70
2016,07,14,13,41,22.80
2016,07,14,13,42,22.90
2016,07,14,13,43,22.90
2016,07,14,13,44,23.00
2016,07,14,13,45,23.10
2016,07,14,13,46,23.00
2016,07,14,13,47,23.00
2016,07,14,13,48,23.00
2016,07,14,13,49,22.90
2016,07,14,13,50,22.90
2016,07,14,13,51,22.90
2016,07,14,13,52,23.00
2016,07,14,13,53,23.10
2016,07,14,13,54,23.10
2016,07,14,13,55,23.10
2016,07,14,13,56,23.20
2016,07,14,13,57,23.20
2016,07,14,13,58,23.10
2016,07,14,13,59,23.10
2016,07,14,14,00,23.10
2016,07,14,14,01,23.10
2016,07,14,14,02,23.10
2016,07,14,14,03,23.10
2016,07,14,14,04,23.10
2016,07,14,14,05,23.20
2016,07,14,14,06,23.20
2016,07,14,14,07,23.30
2016,07,14,14,08,23.30
2016,07,14,14,09,23.30
2016,07,14,14,10,23.40
2016,07,14,14,11,23.30
2016,07,14,14,12,23.20
2016,07,14,14,13,23.10
2016,07,14,14,14,23.00
2016,07,14,14,15,22.90
2016,07,14,14,16,22.90
2016,07,14,14,17,22.90
2016,07,14,14,18,22.90
2016,07,14,14,19,22.90
2016,07,14,14,20,22.90
2016,07,14,14,21,22.90
2016,07,14,14,22,22.70
2016,07,14,14,23,22.60
2016,07,14,14,24,22.50
2016,07,14,14,25,22.50
2016,07,14,14,26,22.50
2016,07,14,14,27,22.60
2016,07,14,14,28,22.70
2016,07,14,14,29,22.80
2016,07,14,14,30,22.90
2016,07,14,14,31,23.10
2016,07,14,14,32,23.20
2016,07,14,14,33,23.20
2016,07,14,14,34,23.20
2016,07,14,14,35,23.20
2016,07,14,14,36,23.20
2016,07,14,14,37,23.20
2016,07,14,14,38,23.20
2016,07,14,14,39,23.20
2016,07,14,14,40,23.20
2016,07,14,14,41,23.20
2016,07,14,14,42,23.30
2016,07,14,14,43,23.30
2016,07,14,14,44,23.30
2016,07,14,14,45,23.30
2016,07,14,14,46,23.30
2016,07,14,14,47,23.30
2016,07,14,14,48,23.30
2016,07,14,14,49,23.30
2016,07,14,14,50,23.50
2016,07,14,14,51,23.60
2016,07,14,14,52,23.70
2016,07,14,14,53,23.80
2016,07,14,14,54,23.90
2016,07,14,14,55,23.90
2016,07,14,14,56,24.00
2016,07,14,14,57,24.00
2016,07,14,14,58,23.80
2016,07,14,14,59,23.80
2016,07,14,15,00,23.70
2016,07,14,15,01,23.60
2016,07,14,15,02,23.60
2016,07,14,15,03,23.60
2016,07,14,15,04,23.60
2016,07,14,15,05,23.70
2016,07,14,15,06,23.70
2016,07,14,15,07,23.70
2016,07,14,15,08,23.70
2016,07,14,15,09,23.80
2016,07,14,15,10,23.80
2016,07,14,15,11,23.70
2016,07,14,15,12,23.70
2016,07,14,15,13,23.60
2016,07,14,15,14,23.50
2016,07,14,15,15,23.50
2016,07,14,15,16,23.40
2016,07,14,15,17,23.40
2016,07,14,15,18,23.50
2016,07,14,15,19,23.60
2016,07,14,15,20,23.70
2016,07,14,15,21,23.90
2016,07,14,15,22,24.00
2016,07,14,15,23,24.10
2016,07,14,15,24,24.10
2016,07,14,15,25,24.20
2016,07,14,15,26,24.20
2016,07,14,15,27,24.30
2016,07,14,15,28,24.40
2016,07,14,15,29,24.40
2016,07,14,15,30,24.40
2016,07,14,15,31,24.40
2016,07,14,15,32,24.40
2016,07,14,15,33,24.40
2016,07,14,15,34,24.30
2016,07,14,15,35,24.20
2016,07,14,15,36,24.10
2016,07,14,15,37,24.00
2016,07,14,15,38,23.90
2016,07,14,15,39,23.80
2016,07,14,15,40,23.80
2016,07,14,15,41,23.80
2016,07,14,15,42,24.00
2016,07,14,15,43,24.00
2016,07,14,15,44,24.10
2016,07,14,15,45,24.10
2016,07,14,15,46,24.20
2016,07,14,15,47,24.20
2016,07,14,15,48,24.20
2016,07,14,15,49,24.30
2016,07,14,15,50,24.30
2016,07,14,15,51,24.50
2016,07,14,15,52,24.50
2016,07,14,15,53,24.60
2016,07,14,15,54,24.50
2016,07,14,15,55,24.40
2016,07,14,15,56,24.40
2016,07,14,15,57,24.40
2016,07,14,15,58,24.30
2016,07,14,15,59,24.30
2016,07,14,16,00,24.30
2016,07,14,16,01,24.30
2016,07,14,16,02,24.40
2016,07,14,16,03,24.30
2016,07,14,16,04,24.30
2016,07,14,16,05,24.40
2016,07,14,16,06,24.50
2016,07,14,16,07,24.60
2016,07,14,16,08,24.70
2016,07,14,16,09,24.60
2016,07,14,16,10,24.50
2016,07,14,16,11,24.40
2016,07,14,16,12,24.40
2016,07,14,16,13,24.50
2016,07,14,16,14,24.60
2016,07,14,16,15,24.70
2016,07,14,16,16,24.60
2016,07,14,16,17,24.40
2016,07,14,16,18,24.20
2016,07,14,16,19,24.00
2016,07,14,16,20,23.70
2016,07,14,16,21,23.40
2016,07,14,16,22,23.10
2016,07,14,16,23,22.90
2016,07,14,16,24,22.80
2016,07,14,16,25,22.70
2016,07,14,16,26,22.60
2016,07,14,16,27,22.50
2016,07,14,16,28,22.40
2016,07,14,16,29,22.30
2016,07,14,16,30,22.30
2016,07,14,16,31,22.30
2016,07,14,16,32,22.30
2016,07,14,16,33,22.20
2016,07,14,16,34,22.20
2016,07,14,16,35,22.20
2016,07,14,16,36,22.10
2016,07,14,16,37,22.00
2016,07,14,16,38,21.80
2016,07,14,16,39,21.50
2016,07,14,16,40,21.20
2016,07,14,16,41,21.00
2016,07,14,16,42,20.60
2016,07,14,16,43,20.30
2016,07,14,16,44,19.90
2016,07,14,16,45,19.50
2016,07,14,16,46,19.20
2016,07,14,16,47,18.90
2016,07,14,16,48,18.70
2016,07,14,16,49,18.50
2016,07,14,16,50,18.30
2016,07,14,16,51,18.20
2016,07,14,16,52,18.10
2016,07,14,16,53,17.90
2016,07,14,16,54,17.80
2016,07,14,16,55,17.80
2016,07,14,16,56,17.70
2016,07,14,16,57,17.60
2016,07,14,16,58,17.50
2016,07,14,16,59,17.40
2016,07,14,17,00,17.40
2016,07,14,17,01,17.30
2016,07,14,17,02,17.20
2016,07,14,17,03,17.20
2016,07,14,17,04,17.10
2016,07,14,17,05,17.10
2016,07,14,17,06,17.10
2016,07,14,17,07,17.10
2016,07,14,17,08,17.10
2016,07,14,17,09,17.20
2016,07,14,17,10,17.30
2016,07,14,17,11,17.40
2016,07,14,17,12,17.60
2016,07,14,17,13,17.70
2016,07,14,17,14,17.80
2016,07,14,17,15,17.80
2016,07,14,17,16,17.70
2016,07,14,17,17,17.70
2016,07,14,17,18,17.70
2016,07,14,17,19,17.70